THOR ABLESTAR DEB, 1522

Orbit data source: Space-Track

THOR ABLESTAR DEB, 1522 is space debris in LEO originally from a launch on Fri, 13 Aug 1965 UTC launched from the Air Force Western Test Range (AFWTR). Debris objects in space refer to the collection of defunct objects orbiting the Earth. Examples of debris include non-operational satellites, rocket bodies, and fragments generated from explosions, collisions, or faulty payload assembly.

Loading next visibility...
THOR ABLESTAR DEB details
Identifier
1522, 1965-065L
Orbit
LEO
Last TLE update14 hours ago
Origin
Flag of USUSN BuWeps (US)
ManufacturerUnknown
MissionSpacecraft
Bus & MotorUnknown
MassUnknown
Launch date (UTC)
1965-08-13 (59 years ago)
Launch vehicleUnknown
Launch site
Air Force Western Test Range (AFWTR)
Object type
Payload
Rocket body
Debris
Shape & HBRUnknown
Radar Cross SectionMedium (>0.1 m² and <1 m²)

Expand to show TLE details & history

TLE from 14 hours ago
0 THOR ABLESTAR DEB
1 01522U 65065L   25015.33868608  .00000079  00000-0  14128-3 0  9992
2 01522  90.1037 122.2531 0069390 262.0076 159.1708 13.33798087890768
Epoch: 2025-01-15T08:07Z
Definitive object data (Epoch: 2025-01-15T08:07:42.477Z)
Latitude61.54498°
Longitude-114.89673°
Altitude1,191.842 km
Speed7.24 km/s
True Right ascension08h 08m 15s
True Declination61° 24' 32"
Sunlit
Object was in full shadow at TLE epoch
Visualization TLE readout
Latitude-13.22761°
Longitude-114.67615°
Altitude1,134.606 km
Speed7.286 km/s
Apparent Right ascension09h 13m 31s
Apparent Declination-26° 42' 45"
Sunlit
Object is in full shadow
Visualization observer readout
Local Sidereal Time22:51:21
Azimuth64.429° ENE
Elevation-65.794°
Doppler factor1
Orbital elements
Apogee altitude1,181.64 km
Perigee altitude1,077.449 km
Semi-major axis7,507.682 km
Eccentricity0.006939
Inclination90.1037°
RAAN122.2531°
Arg. of periapsis262.0076°
True anomaly159.45127°
Mean anomaly159.1708°
Eccentric anomaly159.31126°
Mean motion3.33645 °/min
BSTAR0.00014128
Orbital period107.9 mins
Loading maneuver chart data...
Loading historical data...
Loading historical data...
Loading historical data...
Loading historical data...
Loading historical data...
Loading historical data...
Loading historical data...

THOR ABLESTAR DEB Visibility forecast

Observer location: undefined°, undefined

Span
Click to sort rows by Start time (UTC) header in descending order
Start Az.
Max El. time (UTC)
Max El. Az.
Max El.
End time (UTC)
End Az.
7 mins2025-01-16 05:35:24.203Z98.58° ESE2025-01-16 05:38:24.203Z72.605° E14.71°2025-01-16 05:42:24.203Z37.55° NE
12 mins2025-01-16 07:20:24.203Z176.038° S2025-01-16 07:25:24.203Z185.605° SSW44.978°2025-01-16 07:32:24.203Z357.722° N
5 mins2025-01-16 09:12:24.203Z268.546° W2025-01-16 09:14:24.203Z286.92° WNW14.058°2025-01-16 09:17:24.203Z312.963° NW
12 mins2025-01-16 18:38:24.203Z17.516° NNE2025-01-16 18:44:24.203Z94.732° ESE36.187°2025-01-16 18:50:24.203Z158.634° S
9 mins2025-01-16 20:27:24.203Z331.252° NNW2025-01-16 20:31:24.203Z285.885° WNW26.467°2025-01-16 20:36:24.203Z232.341° WSW
|